| time (UTC) | temp F | wind direction | speed MPH | gust MPH | rain 1hr in | rain 24hr in | rain mn in | humidity % | barometer mb |
| 20260906044112 | 83 | 221 | 0.0 | 0.0 | 0.00 | 0.00 | 0.00 | 92 | 1008.3 |
| 20260906043609 | 84 | 209 | 0.0 | 1.0 | 0.00 | 0.00 | 0.00 | 92 | 1008.4 |
| 20260906043104 | 84 | 222 | 0.0 | 0.0 | 0.00 | 0.00 | 0.00 | 91 | 1008.3 |
| 20260906042603 | 84 | 211 | 0.0 | 0.0 | 0.00 | 0.00 | 0.00 | 91 | 1008.1 |
| 20260906042052 | 84 | 201 | 0.0 | 1.0 | 0.00 | 0.00 | 0.00 | 91 | 1008.3 |
| 20260906041548 | 84 | 214 | 0.0 | 0.0 | 0.00 | 0.00 | 0.00 | 90 | 1008.4 |
| 20260906041043 | 84 | 214 | 0.0 | 0.0 | 0.00 | 0.00 | 0.00 | 90 | 1008.3 |
| 20260906040538 | 84 | 216 | 0.0 | 0.0 | 0.00 | 0.00 | 0.00 | 89 | 1008.2 |
| 20260906040028 | 84 | 215 | 0.0 | 0.0 | 0.00 | 0.00 | 0.00 | 89 | 1008.2 |
| 20260906035523 | 85 | 212 | 0.0 | 0.0 | 0.00 | 0.00 | 0.00 | 89 | 1008.0 |
| 20260906035019 | 85 | 214 | 0.0 | 0.0 | 0.00 | 0.00 | 0.00 | 89 | 1008.0 |
| 20260906034518 | 85 | 201 | 1.0 | 2.0 | 0.00 | 0.00 | 0.00 | 88 | 1008.0 |
| 20260906034014 | 85 | 230 | 1.0 | 2.0 | 0.00 | 0.00 | 0.00 | 88 | 1007.9 |
| 20260906033508 | 85 | 218 | 0.0 | 0.0 | 0.00 | 0.00 | 0.00 | 88 | 1007.9 |
| 20260906033004 | 85 | 211 | 0.0 | 0.0 | 0.00 | 0.00 | 0.00 | 88 | 1007.8 |
| 20260906032500 | 85 | 202 | 0.0 | 0.0 | 0.00 | 0.00 | 0.00 | 87 | 1007.9 |
| 20260906031954 | 85 | 191 | 2.0 | 3.0 | 0.00 | 0.00 | 0.00 | 87 | 1007.6 |
| 20260906031450 | 85 | 207 | 2.0 | 2.0 | 0.00 | 0.00 | 0.00 | 87 | 1007.7 |
| 20260906030946 | 85 | 209 | 0.0 | 0.0 | 0.00 | 0.00 | 0.00 | 86 | 1007.4 |
| 20260906030440 | 85 | 284 | 0.0 | 1.0 | 0.00 | 0.00 | 0.00 | 86 | 1007.3 |
| 20260906025940 | 85 | 195 | 0.0 | 1.0 | 0.00 | 0.00 | 0.00 | 86 | 1007.3 |
| 20260906025434 | 85 | 217 | 1.0 | 1.0 | 0.00 | 0.00 | 0.00 | 86 | 1007.2 |
| 20260906024933 | 85 | 217 | 0.0 | 1.0 | 0.00 | 0.00 | 0.00 | 86 | 1007.2 |
| 20260906024432 | 85 | 197 | 2.0 | 2.0 | 0.00 | 0.00 | 0.00 | 86 | 1007.4 |
| 20260906023927 | 85 | 181 | 1.0 | 1.0 | 0.00 | 0.00 | 0.00 | 87 | 1007.1 |
| 20260906023424 | 85 | 185 | 1.0 | 1.0 | 0.00 | 0.00 | 0.00 | 87 | 1007.0 |
| 20260906022923 | 85 | 204 | 0.0 | 0.0 | 0.00 | 0.00 | 0.00 | 87 | 1007.1 |
| 20260906022418 | 85 | 186 | 1.0 | 3.0 | 0.00 | 0.00 | 0.00 | 87 | 1006.9 |
| 20260906021909 | 85 | 219 | 0.0 | 0.0 | 0.00 | 0.00 | 0.00 | 87 | 1006.9 |
| 20260906021408 | 85 | 216 | 0.0 | 0.0 | 0.00 | 0.00 | 0.00 | 87 | 1006.9 |
| 20260906020902 | 85 | 216 | 0.0 | 0.0 | 0.00 | 0.00 | 0.00 | 87 | 1006.9 |
| 20260906020357 | 85 | 202 | 0.0 | 0.0 | 0.00 | 0.00 | 0.00 | 87 | 1006.7 |
| 20260906015852 | 85 | 184 | 1.0 | 6.0 | 0.00 | 0.00 | 0.00 | 87 | 1006.5 |
| 20260906015351 | 85 | 223 | 0.0 | 0.0 | 0.00 | 0.00 | 0.00 | 87 | 1006.5 |
| 20260906014850 | 85 | 208 | 1.0 | 2.0 | 0.00 | 0.00 | 0.00 | 87 | 1006.7 |
| 20260906014345 | 85 | 213 | 0.0 | 0.0 | 0.00 | 0.00 | 0.00 | 87 | 1006.4 |
| 20260906013841 | 85 | 194 | 2.0 | 2.0 | 0.00 | 0.00 | 0.00 | 87 | 1006.5 |
| 20260906013336 | 85 | 241 | 0.0 | 0.0 | 0.00 | 0.00 | 0.00 | 87 | 1006.3 |
| 20260906012832 | 86 | 210 | 1.0 | 1.0 | 0.00 | 0.00 | 0.00 | 87 | 1006.3 |
| 20260906012327 | 86 | 204 | 1.0 | 2.0 | 0.00 | 0.00 | 0.00 | 87 | 1006.1 |
| 20260906011827 | 86 | 220 | 0.0 | 0.0 | 0.00 | 0.00 | 0.00 | 87 | 1006.3 |
| 20260906011322 | 86 | 305 | 1.0 | 1.0 | 0.00 | 0.00 | 0.00 | 86 | 1006.4 |
| 20260906010818 | 86 | 189 | 2.0 | 2.0 | 0.00 | 0.00 | 0.00 | 86 | 1006.1 |
| 20260906010314 | 86 | 221 | 1.0 | 2.0 | 0.00 | 0.00 | 0.00 | 86 | 1006.1 |
| 20260906005809 | 86 | 195 | 1.0 | 2.0 | 0.00 | 0.00 | 0.00 | 85 | 1006.1 |
| 20260906005308 | 86 | 220 | 0.0 | 0.0 | 0.00 | 0.00 | 0.00 | 83 | 1005.8 |
| 20260906004806 | 86 | 148 | 2.0 | 3.0 | 0.00 | 0.00 | 0.00 | 83 | 1005.8 |
| 20260906004301 | 86 | 205 | 1.0 | 2.0 | 0.00 | 0.00 | 0.00 | 83 | 1005.9 |
| 20260906003756 | 86 | 258 | 1.0 | 3.0 | 0.00 | 0.00 | 0.00 | 82 | 1006.0 |
| 20260906003252 | 86 | 211 | 2.0 | 2.0 | 0.00 | 0.00 | 0.00 | 82 | 1005.6 |
| 20260906002746 | 87 | 112 | 2.0 | 2.0 | 0.00 | 0.00 | 0.00 | 82 | 1005.8 |
| 20260906002241 | 87 | 220 | 0.0 | 0.0 | 0.00 | 0.00 | 0.00 | 82 | 1005.7 |
| 20260906001736 | 87 | 228 | 1.0 | 3.0 | 0.00 | 0.00 | 0.00 | 82 | 1005.3 |
| 20260906001231 | 87 | 309 | 3.0 | 3.0 | 0.00 | 0.00 | 0.00 | 82 | 1005.4 |
| 20260906000727 | 87 | 112 | 2.0 | 3.0 | 0.00 | 0.00 | 0.00 | 81 | 1005.4 |
| 20260906000227 | 87 | 202 | 2.0 | 3.0 | 0.00 | 0.00 | 0.00 | 81 | 1005.6 |
| 20260905235721 | 87 | 31 | 1.0 | 4.0 | 0.00 | 0.00 | 0.00 | 81 | 1005.7 |
| 20260905235216 | 88 | 220 | 0.0 | 0.0 | 0.00 | 0.00 | 0.00 | 81 | 1005.6 |
| 20260905234711 | 88 | 179 | 3.0 | 4.0 | 0.00 | 0.00 | 0.00 | 79 | 1005.7 |
| 20260905234207 | 88 | 167 | 2.0 | 4.0 | 0.00 | 0.00 | 0.00 | 78 | 1005.8 |
| 20260905233702 | 88 | 291 | 2.0 | 2.0 | 0.00 | 0.00 | 0.00 | 78 | 1005.6 |
| 20260905233201 | 89 | 265 | 1.0 | 2.0 | 0.00 | 0.00 | 0.00 | 77 | 1005.5 |
| 20260905232656 | 89 | 25 | 3.0 | 6.0 | 0.00 | 0.00 | 0.00 | 77 | 1005.6 |
| 20260905232152 | 89 | 190 | 3.0 | 4.0 | 0.00 | 0.00 | 0.00 | 76 | 1005.5 |
| 20260905231648 | 89 | 192 | 2.0 | 3.0 | 0.00 | 0.00 | 0.00 | 76 | 1005.4 |
| 20260905231143 | 89 | 201 | 2.0 | 2.0 | 0.00 | 0.00 | 0.00 | 75 | 1005.5 |
| 20260905230639 | 89 | 338 | 1.0 | 6.0 | 0.00 | 0.00 | 0.00 | 75 | 1005.3 |
| 20260905230137 | 90 | 18 | 2.0 | 4.0 | 0.00 | 0.00 | 0.00 | 72 | 1005.3 |
| 20260905225636 | 90 | 208 | 2.0 | 4.0 | 0.00 | 0.00 | 0.00 | 70 | 1005.3 |
| 20260905225131 | 90 | 194 | 2.0 | 3.0 | 0.00 | 0.00 | 0.00 | 68 | 1005.3 |
| 20260905224630 | 90 | 219 | 3.0 | 6.0 | 0.00 | 0.00 | 0.00 | 69 | 1005.5 |
| 20260905224125 | 91 | 212 | 1.0 | 1.0 | 0.00 | 0.00 | 0.00 | 66 | 1005.5 |
| 20260905223622 | 91 | 217 | 2.0 | 2.0 | 0.00 | 0.00 | 0.00 | 68 | 1005.4 |
| 20260905223118 | 90 | 214 | 2.0 | 3.0 | 0.00 | 0.00 | 0.00 | 71 | 1005.5 |
| 20260905222618 | 91 | 217 | 2.0 | 3.0 | 0.00 | 0.00 | 0.00 | 73 | 1005.2 |
| 20260905222108 | 91 | 89 | 1.0 | 1.0 | 0.00 | 0.00 | 0.00 | 73 | 1005.4 |
| 20260905221604 | 91 | 223 | 1.0 | 1.0 | 0.00 | 0.00 | 0.00 | 73 | 1005.5 |
| 20260905221100 | 91 | 177 | 2.0 | 3.0 | 0.00 | 0.00 | 0.00 | 72 | 1005.3 |
| 20260905220555 | 91 | 217 | 3.0 | 4.0 | 0.00 | 0.00 | 0.00 | 72 | 1005.4 |
| 20260905220051 | 91 | 192 | 1.0 | 2.0 | 0.00 | 0.00 | 0.00 | 71 | 1005.4 |
| 20260905215551 | 91 | 218 | 1.0 | 1.0 | 0.00 | 0.00 | 0.00 | 72 | 1005.5 |
| 20260905215046 | 92 | 187 | 3.0 | 4.0 | 0.00 | 0.00 | 0.00 | 70 | 1005.7 |
| 20260905214542 | 91 | 230 | 2.0 | 3.0 | 0.00 | 0.00 | 0.00 | 72 | 1005.6 |
| 20260905214037 | 92 | 147 | 2.0 | 2.0 | 0.00 | 0.00 | 0.00 | 70 | 1005.4 |
| 20260905213532 | 92 | 232 | 1.0 | 2.0 | 0.00 | 0.00 | 0.00 | 72 | 1005.6 |
| 20260905213028 | 93 | 193 | 2.0 | 4.0 | 0.00 | 0.00 | 0.00 | 71 | 1005.5 |
| 20260905212523 | 93 | 49 | 3.0 | 6.0 | 0.00 | 0.00 | 0.00 | 70 | 1005.6 |
| 20260905212022 | 93 | 210 | 1.0 | 2.0 | 0.00 | 0.00 | 0.00 | 69 | 1005.4 |
| 20260905211518 | 93 | 208 | 4.0 | 8.0 | 0.00 | 0.00 | 0.00 | 69 | 1005.7 |
| 20260905211013 | 94 | 210 | 1.0 | 1.0 | 0.00 | 0.00 | 0.00 | 70 | 1005.7 |
| 20260905210509 | 93 | 206 | 1.0 | 2.0 | 0.00 | 0.00 | 0.00 | 70 | 1005.8 |
| 20260905210008 | 94 | 192 | 2.0 | 4.0 | 0.00 | 0.00 | 0.00 | 70 | 1005.8 |
| 20260905205502 | 93 | 197 | 3.0 | 3.0 | 0.00 | 0.00 | 0.00 | 71 | 1005.7 |
| 20260905205001 | 93 | 218 | 2.0 | 2.0 | 0.00 | 0.00 | 0.00 | 70 | 1005.7 |
| 20260905204456 | 92 | 205 | 2.0 | 2.0 | 0.00 | 0.00 | 0.00 | 71 | 1005.9 |
| 20260905203956 | 91 | 199 | 2.0 | 4.0 | 0.00 | 0.00 | 0.00 | 71 | 1006.1 |
| 20260905203451 | 94 | 188 | 2.0 | 2.0 | 0.00 | 0.00 | 0.00 | 69 | 1005.9 |
| 20260905202947 | 93 | 218 | 1.0 | 1.0 | 0.00 | 0.00 | 0.00 | 70 | 1006.2 |
| 20260905202442 | 93 | 221 | 1.0 | 1.0 | 0.00 | 0.00 | 0.00 | 69 | 1006.4 |
| 20260905201938 | 92 | 346 | 2.0 | 3.0 | 0.00 | 0.00 | 0.00 | 71 | 1006.6 |
| 20260905201433 | 92 | 11 | 1.0 | 1.0 | 0.00 | 0.00 | 0.00 | 70 | 1006.4 |
| 20260905200932 | 93 | 198 | 1.0 | 1.0 | 0.00 | 0.00 | 0.00 | 69 | 1006.7 |
| 20260905200429 | 93 | 334 | 3.0 | 3.0 | 0.00 | 0.00 | 0.00 | 69 | 1006.6 |
| 20260905195926 | 93 | 181 | 4.0 | 4.0 | 0.00 | 0.00 | 0.00 | 69 | 1006.7 |
| 20260905195422 | 94 | 216 | 2.0 | 2.0 | 0.00 | 0.00 | 0.00 | 71 | 1006.7 |
| 20260905194918 | 94 | 158 | 3.0 | 6.0 | 0.00 | 0.00 | 0.00 | 68 | 1006.9 |
| 20260905194417 | 94 | 272 | 2.0 | 2.0 | 0.00 | 0.00 | 0.00 | 69 | 1007.0 |
| 20260905193917 | 94 | 217 | 4.0 | 7.0 | 0.00 | 0.00 | 0.00 | 69 | 1007.0 |
| 20260905193412 | 94 | 202 | 3.0 | 7.0 | 0.00 | 0.00 | 0.00 | 68 | 1007.0 |
| 20260905192907 | 93 | 40 | 4.0 | 8.0 | 0.00 | 0.00 | 0.00 | 69 | 1007.2 |
| 20260905192403 | 94 | 223 | 2.0 | 2.0 | 0.00 | 0.00 | 0.00 | 69 | 1007.3 |
| 20260905191903 | 96 | 237 | 4.0 | 6.0 | 0.00 | 0.00 | 0.00 | 66 | 1007.4 |
| 20260905191402 | 95 | 178 | 1.0 | 2.0 | 0.00 | 0.00 | 0.00 | 64 | 1007.2 |
| 20260905190901 | 96 | 222 | 0.0 | 1.0 | 0.00 | 0.00 | 0.00 | 63 | 1007.2 |
| 20260905190354 | 96 | 193 | 2.0 | 3.0 | 0.00 | 0.00 | 0.00 | 66 | 1007.4 |
| 20260905185853 | 96 | 205 | 1.0 | 2.0 | 0.00 | 0.00 | 0.00 | 64 | 1007.5 |
| 20260905185349 | 96 | 246 | 2.0 | 2.0 | 0.00 | 0.00 | 0.00 | 63 | 1007.3 |
| 20260905184848 | 96 | 231 | 3.0 | 4.0 | 0.00 | 0.00 | 0.00 | 63 | 1007.4 |
| 20260905184348 | 97 | 202 | 0.0 | 1.0 | 0.00 | 0.00 | 0.00 | 60 | 1007.4 |
| 20260905183846 | 95 | 178 | 2.0 | 2.0 | 0.00 | 0.00 | 0.00 | 62 | 1007.5 |
| 20260905183342 | 95 | 224 | 2.0 | 3.0 | 0.00 | 0.00 | 0.00 | 62 | 1007.5 |
| 20260905182841 | 96 | 219 | 1.0 | 2.0 | 0.00 | 0.00 | 0.00 | 63 | 1007.5 |
| 20260905182335 | 96 | 211 | 2.0 | 3.0 | 0.00 | 0.00 | 0.00 | 62 | 1007.8 |
| 20260905181831 | 96 | 209 | 1.0 | 2.0 | 0.00 | 0.00 | 0.00 | 64 | 1007.8 |
| 20260905181331 | 95 | 169 | 2.0 | 3.0 | 0.00 | 0.00 | 0.00 | 66 | 1007.7 |
| 20260905180830 | 94 | 218 | 1.0 | 1.0 | 0.00 | 0.00 | 0.00 | 67 | 1007.8 |
| 20260905180325 | 94 | 194 | 1.0 | 1.0 | 0.00 | 0.00 | 0.00 | 67 | 1008.2 |
| 20260905175820 | 94 | 201 | 2.0 | 3.0 | 0.00 | 0.00 | 0.00 | 67 | 1008.2 |
| 20260905175314 | 95 | 188 | 2.0 | 2.0 | 0.00 | 0.00 | 0.00 | 65 | 1008.4 |
| 20260905174810 | 96 | 225 | 2.0 | 2.0 | 0.00 | 0.00 | 0.00 | 64 | 1008.2 |
| 20260905174306 | 95 | 328 | 3.0 | 3.0 | 0.00 | 0.00 | 0.00 | 64 | 1008.5 |
| 20260905173801 | 94 | 220 | 1.0 | 1.0 | 0.00 | 0.00 | 0.00 | 67 | 1008.2 |
| 20260905173257 | 95 | 189 | 3.0 | 4.0 | 0.00 | 0.00 | 0.00 | 66 | 1008.3 |
| 20260905172756 | 95 | 210 | 2.0 | 2.0 | 0.00 | 0.00 | 0.00 | 66 | 1008.6 |
| 20260905172255 | 96 | 236 | 3.0 | 3.0 | 0.00 | 0.00 | 0.00 | 65 | 1008.3 |
| 20260905171751 | 95 | 224 | 2.0 | 2.0 | 0.00 | 0.00 | 0.00 | 67 | 1008.5 |
| 20260905171248 | 93 | 229 | 0.0 | 1.0 | 0.00 | 0.00 | 0.00 | 69 | 1008.5 |
| 20260905170744 | 94 | 206 | 1.0 | 1.0 | 0.00 | 0.00 | 0.00 | 71 | 1008.6 |
| 20260905170239 | 93 | 192 | 2.0 | 2.0 | 0.00 | 0.00 | 0.00 | 70 | 1008.5 |
| 20260905165738 | 92 | 202 | 2.0 | 3.0 | 0.00 | 0.00 | 0.00 | 71 | 1008.5 |
| 20260905165233 | 92 | 225 | 2.0 | 2.0 | 0.00 | 0.00 | 0.00 | 72 | 1008.6 |
| 20260905164728 | 91 | 186 | 3.0 | 4.0 | 0.00 | 0.00 | 0.00 | 72 | 1008.5 |
| 20260905164223 | 91 | 213 | 1.0 | 2.0 | 0.00 | 0.00 | 0.00 | 75 | 1008.5 |
| 20260905163719 | 91 | 195 | 1.0 | 2.0 | 0.00 | 0.00 | 0.00 | 74 | 1008.9 |
| 20260905163214 | 91 | 207 | 2.0 | 3.0 | 0.00 | 0.00 | 0.00 | 75 | 1008.7 |
| 20260905162710 | 91 | 201 | 1.0 | 2.0 | 0.00 | 0.00 | 0.00 | 75 | 1008.5 |
| 20260905162210 | 91 | 214 | 1.0 | 2.0 | 0.00 | 0.00 | 0.00 | 76 | 1008.8 |
| 20260905161659 | 90 | 216 | 0.0 | 1.0 | 0.00 | 0.00 | 0.00 | 78 | 1009.0 |
| 20260905161157 | 90 | 211 | 0.0 | 0.0 | 0.00 | 0.00 | 0.00 | 77 | 1008.8 |
| 20260905160650 | 90 | 188 | 2.0 | 2.0 | 0.00 | 0.00 | 0.00 | 77 | 1008.7 |
| 20260905160150 | 90 | 217 | 1.0 | 1.0 | 0.00 | 0.00 | 0.00 | 78 | 1008.6 |
| 20260905155644 | 91 | 224 | 0.0 | 1.0 | 0.00 | 0.00 | 0.00 | 77 | 1008.6 |
| 20260905155143 | 91 | 209 | 0.0 | 1.0 | 0.00 | 0.00 | 0.00 | 77 | 1008.8 |
| 20260905154638 | 90 | 242 | 0.0 | 1.0 | 0.00 | 0.00 | 0.00 | 78 | 1008.9 |
| 20260905154134 | 90 | 219 | 0.0 | 1.0 | 0.00 | 0.00 | 0.00 | 80 | 1009.0 |
| 20260905153629 | 89 | 225 | 0.0 | 1.0 | 0.00 | 0.00 | 0.00 | 80 | 1008.7 |
| 20260905153125 | 89 | 202 | 2.0 | 2.0 | 0.00 | 0.00 | 0.00 | 80 | 1008.7 |
| 20260905152620 | 89 | 199 | 2.0 | 2.0 | 0.00 | 0.00 | 0.00 | 81 | 1008.8 |
| 20260905152114 | 88 | 211 | 2.0 | 3.0 | 0.00 | 0.00 | 0.00 | 82 | 1008.7 |
| 20260905151609 | 88 | 195 | 1.0 | 2.0 | 0.00 | 0.00 | 0.00 | 82 | 1008.8 |
| 20260905151104 | 88 | 185 | 1.0 | 1.0 | 0.00 | 0.00 | 0.00 | 82 | 1008.9 |
| 20260905150600 | 87 | 181 | 0.0 | 1.0 | 0.00 | 0.00 | 0.00 | 83 | 1009.0 |
| 20260905150057 | 87 | 178 | 2.0 | 2.0 | 0.00 | 0.00 | 0.00 | 83 | 1008.8 |
| 20260905145551 | 88 | 210 | 1.0 | 2.0 | 0.00 | 0.00 | 0.00 | 82 | 1008.9 |
| 20260905145049 | 88 | 236 | 1.0 | 2.0 | 0.00 | 0.00 | 0.00 | 83 | 1008.7 |
| 20260905144545 | 87 | 226 | 0.0 | 0.0 | 0.00 | 0.00 | 0.00 | 85 | 1009.0 |
| 20260905144043 | 86 | 210 | 1.0 | 2.0 | 0.00 | 0.00 | 0.00 | 85 | 1008.8 |
| 20260905143538 | 86 | 207 | 0.0 | 1.0 | 0.00 | 0.00 | 0.00 | 87 | 1008.6 |
| 20260905143033 | 86 | 216 | 0.0 | 1.0 | 0.00 | 0.00 | 0.00 | 87 | 1008.6 |
| 20260905142531 | 86 | 199 | 0.0 | 0.0 | 0.00 | 0.00 | 0.00 | 87 | 1008.6 |
| 20260905142026 | 86 | 188 | 1.0 | 2.0 | 0.00 | 0.00 | 0.00 | 87 | 1008.6 |
| 20260905141521 | 86 | 214 | 0.0 | 0.0 | 0.00 | 0.00 | 0.00 | 88 | 1008.5 |
| 20260905141018 | 86 | 198 | 2.0 | 2.0 | 0.00 | 0.00 | 0.00 | 88 | 1008.6 |
| 20260905140513 | 85 | 207 | 0.0 | 0.0 | 0.00 | 0.00 | 0.00 | 89 | 1008.5 |
| 20260905140012 | 85 | 219 | 1.0 | 2.0 | 0.00 | 0.00 | 0.00 | 89 | 1008.5 |
| 20260905135507 | 85 | 214 | 0.0 | 0.0 | 0.00 | 0.00 | 0.00 | 90 | 1008.3 |
| 20260905135002 | 84 | 216 | 0.0 | 0.0 | 0.00 | 0.00 | 0.00 | 91 | 1008.1 |
| 20260905134501 | 85 | 215 | 0.0 | 0.0 | 0.00 | 0.00 | 0.00 | 91 | 1008.1 |
| 20260905134001 | 84 | 209 | 0.0 | 0.0 | 0.00 | 0.00 | 0.00 | 91 | 1008.0 |
| 20260905133455 | 84 | 216 | 1.0 | 2.0 | 0.00 | 0.00 | 0.00 | 91 | 1008.0 |
| 20260905132950 | 84 | 209 | 2.0 | 2.0 | 0.00 | 0.00 | 0.00 | 91 | 1008.0 |
| 20260905132445 | 84 | 206 | 0.0 | 1.0 | 0.00 | 0.00 | 0.00 | 91 | 1008.0 |
| 20260905131940 | 84 | 221 | 0.0 | 0.0 | 0.00 | 0.00 | 0.00 | 92 | 1007.9 |
| 20260905131436 | 84 | 220 | 0.0 | 0.0 | 0.00 | 0.00 | 0.00 | 93 | 1008.0 |
| 20260905130936 | 84 | 218 | 0.0 | 0.0 | 0.00 | 0.00 | 0.00 | 93 | 1007.8 |
| 20260905130430 | 84 | 202 | 0.0 | 0.0 | 0.00 | 0.00 | 0.00 | 93 | 1007.9 |
| 20260905125930 | 84 | 214 | 0.0 | 0.0 | 0.00 | 0.00 | 0.00 | 93 | 1007.8 |
| 20260905125425 | 83 | 214 | 0.0 | 0.0 | 0.00 | 0.00 | 0.00 | 93 | 1007.9 |
| 20260905124920 | 83 | 216 | 0.0 | 0.0 | 0.00 | 0.00 | 0.00 | 93 | 1007.6 |
| 20260905124417 | 83 | 221 | 0.0 | 0.0 | 0.00 | 0.00 | 0.00 | 94 | 1007.5 |
| 20260905123916 | 83 | 211 | 0.0 | 0.0 | 0.00 | 0.00 | 0.00 | 94 | 1007.7 |
| 20260905123413 | 83 | 212 | 0.0 | 0.0 | 0.00 | 0.00 | 0.00 | 94 | 1007.2 |
| 20260905122908 | 83 | 220 | 0.0 | 0.0 | 0.00 | 0.00 | 0.00 | 94 | 1007.6 |
| 20260905122408 | 83 | 213 | 0.0 | 1.0 | 0.00 | 0.00 | 0.00 | 94 | 1007.4 |
| 20260905121903 | 83 | 217 | 0.0 | 0.0 | 0.00 | 0.00 | 0.00 | 94 | 1007.3 |
| 20260905121359 | 83 | 196 | 0.0 | 1.0 | 0.00 | 0.00 | 0.00 | 94 | 1007.4 |
| 20260905120858 | 83 | 220 | 0.0 | 0.0 | 0.00 | 0.00 | 0.00 | 94 | 1007.3 |
| 20260905120357 | 83 | 215 | 0.0 | 0.0 | 0.00 | 0.00 | 0.00 | 94 | 1007.2 |
| 20260905115852 | 83 | 221 | 0.0 | 0.0 | 0.00 | 0.00 | 0.00 | 94 | 1007.2 |
| 20260905115352 | 83 | 209 | 0.0 | 1.0 | 0.00 | 0.00 | 0.00 | 94 | 1007.1 |
| 20260905114847 | 83 | 211 | 0.0 | 1.0 | 0.00 | 0.00 | 0.00 | 94 | 1007.2 |
| 20260905114346 | 83 | 218 | 0.0 | 0.0 | 0.00 | 0.00 | 0.00 | 94 | 1007.0 |
| 20260905113840 | 83 | 213 | 0.0 | 0.0 | 0.00 | 0.00 | 0.00 | 94 | 1007.2 |
| 20260905113336 | 83 | 216 | 0.0 | 0.0 | 0.00 | 0.00 | 0.00 | 94 | 1007.0 |
| 20260905112831 | 83 | 215 | 0.0 | 1.0 | 0.00 | 0.00 | 0.00 | 94 | 1007.2 |
| 20260905112325 | 83 | 197 | 0.0 | 0.0 | 0.00 | 0.00 | 0.00 | 94 | 1006.7 |
| 20260905111821 | 83 | 220 | 0.0 | 0.0 | 0.00 | 0.00 | 0.00 | 94 | 1007.1 |
| 20260905111315 | 83 | 215 | 0.0 | 0.0 | 0.00 | 0.00 | 0.00 | 94 | 1007.0 |
| 20260905110814 | 83 | 220 | 0.0 | 0.0 | 0.00 | 0.00 | 0.00 | 94 | 1006.8 |
| 20260905110308 | 83 | 216 | 0.0 | 0.0 | 0.00 | 0.00 | 0.00 | 94 | 1006.9 |
| 20260905105804 | 83 | 220 | 0.0 | 0.0 | 0.00 | 0.00 | 0.00 | 94 | 1006.9 |
| 20260905105306 | 83 | 204 | 0.0 | 0.0 | 0.00 | 0.00 | 0.00 | 94 | 1006.9 |
| 20260905104757 | 83 | 209 | 0.0 | 1.0 | 0.00 | 0.00 | 0.00 | 94 | 1007.0 |
| 20260905104254 | 83 | 216 | 0.0 | 0.0 | 0.00 | 0.00 | 0.00 | 94 | 1006.9 |
| 20260905103753 | 83 | 219 | 0.0 | 0.0 | 0.00 | 0.00 | 0.00 | 94 | 1007.0 |
| 20260905103249 | 83 | 219 | 0.0 | 0.0 | 0.00 | 0.00 | 0.00 | 94 | 1007.0 |
| 20260905102745 | 83 | 169 | 0.0 | 1.0 | 0.00 | 0.00 | 0.00 | 94 | 1007.0 |
| 20260905102242 | 83 | 215 | 0.0 | 0.0 | 0.00 | 0.00 | 0.00 | 93 | 1006.9 |
| 20260905101741 | 83 | 213 | 0.0 | 0.0 | 0.00 | 0.00 | 0.00 | 93 | 1007.0 |
| 20260905101239 | 83 | 220 | 0.0 | 0.0 | 0.00 | 0.00 | 0.00 | 93 | 1007.0 |
| 20260905100734 | 83 | 200 | 0.0 | 0.0 | 0.00 | 0.00 | 0.00 | 93 | 1006.9 |
| 20260905100230 | 83 | 202 | 0.0 | 0.0 | 0.00 | 0.00 | 0.00 | 93 | 1007.0 |
| 20260905095730 | 83 | 210 | 0.0 | 0.0 | 0.00 | 0.00 | 0.00 | 93 | 1007.1 |
| 20260905095229 | 83 | 205 | 0.0 | 0.0 | 0.00 | 0.00 | 0.00 | 93 | 1006.8 |
| 20260905094724 | 83 | 214 | 0.0 | 0.0 | 0.00 | 0.00 | 0.00 | 94 | 1007.1 |
| 20260905094219 | 83 | 223 | 0.0 | 0.0 | 0.00 | 0.00 | 0.00 | 94 | 1006.9 |
| 20260905093713 | 83 | 214 | 0.0 | 0.0 | 0.00 | 0.00 | 0.00 | 94 | 1006.7 |
| 20260905093209 | 83 | 213 | 0.0 | 0.0 | 0.00 | 0.00 | 0.00 | 94 | 1007.0 |
| 20260905092704 | 83 | 218 | 0.0 | 0.0 | 0.00 | 0.00 | 0.00 | 94 | 1007.1 |
| 20260905092200 | 83 | 218 | 0.0 | 0.0 | 0.00 | 0.00 | 0.00 | 94 | 1007.0 |
| 20260905091659 | 83 | 217 | 0.0 | 0.0 | 0.00 | 0.00 | 0.00 | 94 | 1007.1 |
| 20260905091159 | 83 | 211 | 0.0 | 0.0 | 0.00 | 0.00 | 0.00 | 94 | 1007.2 |
| 20260905090653 | 83 | 209 | 0.0 | 0.0 | 0.00 | 0.00 | 0.00 | 94 | 1007.2 |
| 20260905090149 | 83 | 221 | 0.0 | 0.0 | 0.00 | 0.00 | 0.00 | 93 | 1007.1 |
| 20260905085648 | 83 | 219 | 0.0 | 1.0 | 0.00 | 0.00 | 0.00 | 93 | 1006.9 |
| 20260905085143 | 84 | 198 | 1.0 | 1.0 | 0.00 | 0.00 | 0.00 | 93 | 1007.1 |
| 20260905084643 | 84 | 215 | 0.0 | 0.0 | 0.00 | 0.00 | 0.00 | 93 | 1007.0 |
| 20260905084138 | 84 | 206 | 1.0 | 1.0 | 0.00 | 0.00 | 0.00 | 93 | 1007.1 |
| 20260905083632 | 84 | 216 | 0.0 | 1.0 | 0.00 | 0.00 | 0.00 | 92 | 1007.1 |
| 20260905083129 | 84 | 217 | 0.0 | 0.0 | 0.00 | 0.00 | 0.00 | 92 | 1007.3 |
| 20260905082624 | 84 | 205 | 0.0 | 0.0 | 0.00 | 0.00 | 0.00 | 92 | 1007.1 |
| 20260905082120 | 84 | 212 | 0.0 | 0.0 | 0.00 | 0.00 | 0.00 | 92 | 1007.2 |
| 20260905081620 | 84 | 230 | 0.0 | 0.0 | 0.00 | 0.00 | 0.00 | 92 | 1007.2 |
| 20260905081114 | 84 | 195 | 0.0 | 0.0 | 0.00 | 0.00 | 0.00 | 92 | 1007.1 |
| 20260905080615 | 84 | 211 | 2.0 | 2.0 | 0.00 | 0.00 | 0.00 | 92 | 1007.0 |
| 20260905080109 | 84 | 197 | 0.0 | 0.0 | 0.00 | 0.00 | 0.00 | 92 | 1007.0 |
| 20260905075608 | 84 | 204 | 0.0 | 1.0 | 0.00 | 0.00 | 0.00 | 92 | 1007.1 |
| 20260905075107 | 84 | 215 | 0.0 | 0.0 | 0.00 | 0.00 | 0.00 | 91 | 1007.1 |
| 20260905074607 | 84 | 210 | 0.0 | 0.0 | 0.00 | 0.00 | 0.00 | 91 | 1007.1 |
| 20260905074103 | 84 | 211 | 0.0 | 0.0 | 0.00 | 0.00 | 0.00 | 91 | 1007.5 |
| 20260905073558 | 84 | 178 | 2.0 | 2.0 | 0.00 | 0.00 | 0.00 | 91 | 1007.3 |
| 20260905073053 | 84 | 207 | 1.0 | 1.0 | 0.00 | 0.00 | 0.00 | 91 | 1007.5 |
| 20260905072553 | 84 | 216 | 0.0 | 0.0 | 0.00 | 0.00 | 0.00 | 91 | 1007.3 |
| 20260905072048 | 84 | 219 | 0.0 | 0.0 | 0.00 | 0.00 | 0.00 | 90 | 1007.3 |
| 20260905071545 | 84 | 212 | 0.0 | 0.0 | 0.00 | 0.00 | 0.00 | 90 | 1007.5 |
| 20260905071040 | 84 | 214 | 0.0 | 0.0 | 0.00 | 0.00 | 0.00 | 90 | 1007.5 |
| 20260905070536 | 84 | 189 | 0.0 | 0.0 | 0.00 | 0.00 | 0.00 | 90 | 1007.8 |
| 20260905070032 | 84 | 214 | 0.0 | 0.0 | 0.00 | 0.00 | 0.00 | 90 | 1007.6 |
| 20260905065529 | 84 | 212 | 0.0 | 0.0 | 0.00 | 0.00 | 0.00 | 90 | 1007.6 |
| 20260905065025 | 84 | 210 | 0.0 | 0.0 | 0.00 | 0.00 | 0.00 | 90 | 1007.4 |
| 20260905064525 | 84 | 216 | 0.0 | 1.0 | 0.00 | 0.00 | 0.00 | 89 | 1007.4 |
| 20260905064020 | 84 | 211 | 2.0 | 3.0 | 0.00 | 0.00 | 0.00 | 90 | 1007.4 |
| 20260905063519 | 84 | 263 | 2.0 | 3.0 | 0.00 | 0.00 | 0.00 | 90 | 1007.7 |
| 20260905063016 | 84 | 198 | 1.0 | 1.0 | 0.00 | 0.00 | 0.00 | 89 | 1007.3 |
| 20260905062515 | 84 | 215 | 1.0 | 2.0 | 0.00 | 0.00 | 0.00 | 89 | 1007.5 |
| 20260905062010 | 84 | 211 | 0.0 | 0.0 | 0.00 | 0.00 | 0.00 | 89 | 1007.5 |
| 20260905061505 | 84 | 221 | 0.0 | 0.0 | 0.00 | 0.00 | 0.00 | 89 | 1007.6 |
| 20260905061004 | 84 | 217 | 0.0 | 0.0 | 0.00 | 0.00 | 0.00 | 89 | 1007.7 |
| 20260905060500 | 84 | 211 | 0.0 | 0.0 | 0.00 | 0.00 | 0.00 | 89 | 1008.0 |
| 20260905055955 | 84 | 204 | 1.0 | 1.0 | 0.00 | 0.00 | 0.00 | 89 | 1007.9 |
| 20260905055454 | 84 | 201 | 3.0 | 3.0 | 0.00 | 0.00 | 0.00 | 89 | 1007.9 |
| 20260905054949 | 84 | 213 | 0.0 | 0.0 | 0.00 | 0.00 | 0.00 | 88 | 1007.8 |
| 20260905054444 | 84 | 173 | 1.0 | 2.0 | 0.00 | 0.00 | 0.00 | 88 | 1008.0 |
| 20260905053939 | 84 | 211 | 0.0 | 0.0 | 0.00 | 0.00 | 0.00 | 88 | 1007.9 |
| 20260905053434 | 84 | 205 | 0.0 | 1.0 | 0.00 | 0.00 | 0.00 | 88 | 1007.9 |
| 20260905052930 | 84 | 218 | 0.0 | 0.0 | 0.00 | 0.00 | 0.00 | 88 | 1007.8 |
| 20260905052429 | 84 | 197 | 0.0 | 0.0 | 0.00 | 0.00 | 0.00 | 88 | 1007.9 |
| 20260905051929 | 84 | 211 | 0.0 | 0.0 | 0.00 | 0.00 | 0.00 | 88 | 1008.1 |
| 20260905051424 | 84 | 208 | 0.0 | 0.0 | 0.00 | 0.00 | 0.00 | 88 | 1007.9 |
| 20260905050922 | 84 | 203 | 0.0 | 0.0 | 0.00 | 0.00 | 0.00 | 88 | 1007.9 |
| 20260905050417 | 84 | 211 | 0.0 | 0.0 | 0.00 | 0.00 | 0.00 | 88 | 1008.1 |
| 20260905045913 | 84 | 206 | 1.0 | 1.0 | 0.00 | 0.00 | 0.00 | 88 | 1008.0 |
| 20260905045408 | 84 | 214 | 0.0 | 0.0 | 0.00 | 0.00 | 0.00 | 88 | 1008.0 |
| 20260905044903 | 84 | 197 | 0.0 | 0.0 | 0.00 | 0.00 | 0.00 | 88 | 1008.0 |